Date String (YYYY-MM-DD hh:mm:ss) UTC,Instrument flags,absolute air pressure of the measurement (hPa),sample flow rate (lpm),inlet stack bypass flow (lpm),air temperature of the measurement (°C),ambient temperature measured by the external sensor (°C),aerosol sample conditioner tube jacket temperature (°C),OPC LED temperature (°C),internal box temperature (°C),relative humidity of the measurement (%),span deviation,mass concentration of particles derived from Lorenz-Mie calculation of OPC scattering (μg/m³),mass concentration of particles derived from Lorenz-Mie calculation of OPC scattering (μg/m³),mass concentration of particles derived from Lorenz-Mie calculation of OPC scattering (μg/m³)
DateTimeUTC,F1_M11,P_M11,Q1_M11,Q2_M11,T1_M11,T2_M11,T3_M11,T4_M11,T5_M11,U1_M11,ZSPAN_M11,X0_M11,X2_M11,X1_M11
2024-04-10 18:00:00,SystemResetWarning,0830.7,5.00,000.00,025.6,024.9,000.0,034.0,027.5,011.1,0000.0,0010.32,0003.66,0002.06
2024-04-10 18:01:00,SystemResetWarning,0830.8,5.00,000.00,025.6,024.9,000.0,034.0,027.5,011.1,0000.0,0010.14,0003.68,0002.09
2024-04-10 18:02:00,SystemResetWarning,0830.7,5.00,000.00,025.6,025.0,000.0,034.0,027.5,011.6,0000.0,0010.85,0003.65,0002.11
2024-04-10 18:03:00,SystemResetWarning,0830.7,5.00,000.00,025.7,025.0,000.0,034.0,027.5,011.4,0000.0,0011.37,0003.69,0002.12
2024-04-10 18:04:00,SystemResetWarning,0830.7,5.00,000.00,025.7,025.0,000.0,034.1,027.5,011.4,0000.0,0013.09,0003.73,0002.13
2024-04-10 18:05:00,SystemResetWarning,0830.7,5.00,000.00,025.7,025.0,000.0,034.1,027.5,011.5,0000.0,0013.25,0003.76,0002.12
2024-04-10 18:06:00,SystemResetWarning,0830.8,5.02,000.00,025.7,025.0,000.0,034.1,027.5,011.1,0000.0,0013.26,0003.77,0002.12
2024-04-10 18:07:00,SystemResetWarning,0830.8,5.00,000.00,025.7,025.0,000.0,034.1,027.5,011.2,0000.0,0013.55,0003.79,0002.13
2024-04-10 18:08:00,SystemResetWarning,0830.7,5.00,000.00,025.7,025.0,000.0,034.1,027.5,011.4,0000.0,0013.94,0003.80,0002.14
2024-04-10 18:09:00,SystemResetWarning,0830.7,4.99,000.00,025.7,025.0,000.0,034.1,027.5,011.1,0000.0,0013.76,0003.79,0002.13
2024-04-10 18:10:00,SystemResetWarning,0830.7,5.00,000.00,025.7,025.0,000.0,034.1,027.5,011.0,0000.0,0013.68,0003.73,0002.11
2024-04-10 18:11:00,SystemResetWarning,0830.7,5.00,000.00,025.7,025.0,000.0,034.1,027.5,011.1,0000.0,0014.19,0003.74,0002.09
2024-04-10 18:12:00,SystemResetWarning,0830.7,5.00,000.00,025.7,025.0,000.0,034.1,027.5,010.9,0000.0,0014.93,0003.74,0002.06
2024-04-10 18:13:00,SystemResetWarning,0830.7,5.01,000.00,025.7,025.0,000.0,034.1,027.5,011.0,0000.0,0014.38,0003.72,0002.06
2024-04-10 18:14:00,SystemResetWarning,0830.6,5.01,000.00,025.7,025.0,000.0,034.1,027.5,011.1,0000.0,0013.94,0003.74,0002.06
2024-04-10 18:15:00,SystemResetWarning,0830.6,5.01,000.00,025.7,025.0,000.0,034.1,027.5,011.1,0000.0,0013.49,0003.74,0002.09
2024-04-10 18:16:00,SystemResetWarning,0830.7,5.00,000.00,025.7,025.0,000.0,034.1,027.5,010.9,0000.0,0012.81,0003.67,0002.11
2024-04-10 18:17:00,SystemResetWarning,0830.7,4.99,000.00,025.7,025.0,000.0,034.1,027.5,011.0,0000.0,0013.55,0003.65,0002.13
2024-04-10 18:18:00,SystemResetWarning,0830.6,4.99,000.00,025.7,025.0,000.0,034.2,027.5,011.0,0000.0,0014.09,0003.61,0002.15
2024-04-10 18:19:00,SystemResetWarning,0830.7,4.99,000.00,025.7,025.0,000.0,034.2,027.5,011.1,0000.0,0014.11,0003.63,0002.17
2024-04-10 18:20:00,SystemResetWarning,0830.7,5.00,000.00,025.7,024.9,000.0,034.1,027.5,011.0,0000.0,0014.02,0003.64,0002.20
2024-04-10 18:21:00,SystemResetWarning,0830.7,5.00,000.00,025.7,024.9,000.0,034.2,027.5,011.0,0000.0,0014.51,0003.73,0002.24
2024-04-10 18:22:00,SystemResetWarning,0830.7,5.01,000.00,025.7,024.9,000.0,034.2,027.5,011.1,0000.0,0014.29,0003.72,0002.25
2024-04-10 18:23:00,SystemResetWarning,0830.7,5.01,000.00,025.7,024.9,000.0,034.2,027.5,011.1,0000.0,0013.59,0003.68,0002.25
2024-04-10 18:24:00,SystemResetWarning,0830.7,5.00,000.00,025.7,024.9,000.0,034.2,027.5,011.2,0000.0,0013.92,0003.69,0002.25
2024-04-10 18:25:00,SystemResetWarning,0830.7,5.00,000.00,025.7,025.0,000.0,034.2,027.5,011.3,0000.0,0013.88,0003.68,0002.24
2024-04-10 18:26:00,SystemResetWarning,0830.7,5.00,000.00,025.7,025.0,000.0,034.2,027.5,011.5,0000.0,0014.42,0003.67,0002.22
2024-04-10 18:27:00,SystemResetWarning,0830.7,5.00,000.00,025.7,025.0,000.0,034.2,027.5,011.3,0000.0,0014.63,0003.71,0002.22
2024-04-10 18:28:00,SystemResetWarning,0830.7,5.00,000.00,025.7,025.0,000.0,034.2,027.6,011.1,0000.0,0014.13,0003.70,0002.19
2024-04-10 18:29:00,SystemResetWarning,0830.7,5.00,000.00,025.8,025.0,000.0,034.2,027.6,011.0,0000.0,0014.12,0003.68,0002.17
2024-04-10 18:30:00,SystemResetWarning,0830.6,5.00,000.00,025.8,025.0,000.0,034.2,027.6,011.1,0000.0,0013.82,0003.65,0002.12
2024-04-10 18:31:00,SystemResetWarning,0830.7,4.99,000.00,025.8,025.1,000.0,034.2,027.6,011.2,0000.0,0013.43,0003.62,0002.07
2024-04-10 18:32:00,SystemResetWarning,0830.6,5.00,000.00,025.8,025.1,000.0,034.2,027.6,011.2,0000.0,0012.91,0003.54,0002.02
2024-04-10 18:33:00,SystemResetWarning,0830.7,5.00,000.00,025.8,025.1,000.0,034.2,027.6,011.2,0000.0,0012.66,0003.48,0001.98
2024-04-10 18:34:00,SystemResetWarning,0830.6,5.00,000.00,025.8,025.1,000.0,034.2,027.6,011.3,0000.0,0012.92,0003.46,0001.97
2024-04-10 18:35:00,SystemResetWarning,0830.6,5.00,000.00,025.8,025.2,000.0,034.2,027.6,011.4,0000.0,0012.87,0003.40,0001.94
2024-04-10 18:36:00,SystemResetWarning,0830.6,5.01,000.00,025.8,025.2,000.0,034.2,027.7,011.2,0000.0,0012.56,0003.38,0001.93
2024-04-10 18:37:00,SystemResetWarning,0830.6,5.00,000.00,025.8,025.2,000.0,034.2,027.7,011.1,0000.0,0011.73,0003.35,0001.91
2024-04-10 18:38:00,SystemResetWarning,0830.6,5.00,000.00,025.8,025.2,000.0,034.2,027.7,011.1,0000.0,0010.96,0003.32,0001.90
2024-04-10 18:39:00,SystemResetWarning,0830.6,4.99,000.00,025.9,025.2,000.0,034.2,027.7,011.1,0000.0,0010.52,0003.32,0001.91
2024-04-10 18:40:00,SystemResetWarning,0830.6,4.99,000.00,025.9,025.2,000.0,034.2,027.7,011.1,0000.0,0009.82,0003.33,0001.92
2024-04-10 18:41:00,SystemResetWarning,0830.6,5.01,000.00,025.9,025.2,000.0,034.3,027.7,011.0,0000.0,0010.03,0003.31,0001.92
2024-04-10 18:42:00,SystemResetWarning,0830.5,5.01,000.00,025.9,025.2,000.0,034.3,027.7,011.0,0000.0,0010.23,0003.33,0001.93
2024-04-10 18:43:00,SystemResetWarning,0830.7,4.99,000.00,025.9,025.2,000.0,034.3,027.7,011.0,0000.0,0010.99,0003.33,0001.92
2024-04-10 18:44:00,SystemResetWarning,0830.6,4.99,000.00,025.9,025.2,000.0,034.3,027.8,011.2,0000.0,0011.69,0003.41,0001.92
2024-04-10 18:45:00,SystemResetWarning,0830.5,4.99,000.00,025.9,025.3,000.0,034.3,027.8,011.1,0000.0,0011.58,0003.43,0001.92
2024-04-10 18:46:00,SystemResetWarning,0830.4,5.02,000.00,025.9,025.3,000.0,034.3,027.8,011.3,0000.0,0011.53,0003.47,0001.93
2024-04-10 18:47:00,SystemResetWarning,0830.6,5.00,000.00,025.9,025.3,000.0,034.3,027.8,011.2,0000.0,0012.55,0003.50,0001.93
2024-04-10 18:48:00,SystemResetWarning,0830.6,5.01,000.00,026.0,025.3,000.0,034.3,027.8,011.0,0000.0,0012.76,0003.54,0001.94
2024-04-10 18:49:00,SystemResetWarning,0830.5,5.01,000.00,026.0,025.3,000.0,034.3,027.8,011.0,0000.0,0012.96,0003.57,0001.93
2024-04-10 18:50:00,SystemResetWarning,0830.4,5.00,000.00,026.0,025.3,000.0,034.3,027.8,011.2,0000.0,0013.54,0003.57,0001.92
2024-04-10 18:51:00,SystemResetWarning,0830.4,5.00,000.00,026.0,025.3,000.0,034.3,027.8,011.3,0000.0,0013.35,0003.56,0001.90
2024-04-10 18:52:00,SystemResetWarning,0830.4,5.00,000.00,026.0,025.3,000.0,034.3,027.8,011.4,0000.0,0012.62,0003.57,0001.89
2024-04-10 18:53:00,SystemResetWarning,0830.4,4.99,000.00,026.0,025.3,000.0,034.4,027.8,011.4,0000.0,0012.26,0003.55,0001.89
2024-04-10 18:54:00,SystemResetWarning,0830.4,5.00,000.00,026.0,025.3,000.0,034.4,027.8,011.4,0000.0,0011.42,0003.57,0001.90
2024-04-10 18:55:00,SystemResetWarning,0830.4,5.00,000.00,026.0,025.3,000.0,034.4,027.8,011.5,0000.0,0011.22,0003.58,0001.90
2024-04-10 18:56:00,SystemResetWarning,0830.3,5.00,000.00,026.0,025.3,000.0,034.4,027.8,011.4,0000.0,0011.86,0003.63,0001.91
2024-04-10 18:57:00,SystemResetWarning,0830.3,5.00,000.00,026.0,025.3,000.0,034.4,027.9,011.8,0000.0,0012.20,0003.63,0001.90
2024-04-10 18:58:00,SystemResetWarning,0830.4,5.00,000.00,026.0,025.3,000.0,034.4,027.9,011.6,0000.0,0011.08,0003.59,0001.89
2024-04-10 18:59:00,SystemResetWarning,0830.4,5.00,000.00,026.1,025.3,000.0,034.4,027.9,011.2,0000.0,0010.94,0003.52,0001.87
